Time,TemperatureF,DewpointF,PressureIn,WindDirection,WindDirectionDegrees,WindSpeedMPH,WindSpeedGustMPH,Humidity,HourlyPrecipIn,Conditions,Clouds,dailyrainin,SoftwareType,DateUTC
2013-12-13 00:01:00,18.7,11.2,30.07,SW,228,19.1,26.5,72,0.00,-SN,,0.00,WeatherDisplay:10.37,2013-12-13 05:01:00,
2013-12-13 00:02:00,18.8,11.3,30.07,West,266,16.8,26.5,72,0.00,-SN,,0.00,WeatherDisplay:10.37,2013-12-13 05:02:00,
2013-12-13 00:07:00,18.7,11.5,30.06,WSW,240,13.2,18.4,73,0.00,-SN,,0.00,WeatherDisplay:10.37,2013-12-13 05:07:00,
2013-12-13 00:12:00,18.6,11.4,30.06,WSW,245,17.2,22.0,73,0.00,-SN,,0.00,WeatherDisplay:10.37,2013-12-13 05:12:00,
2013-12-13 00:17:00,18.6,11.4,30.06,WSW,239,15.2,19.6,73,0.00,-SN,,0.00,WeatherDisplay:10.37,2013-12-13 05:17:00,
2013-12-13 00:22:00,18.6,11.4,30.07,WSW,249,15.1,22.0,73,0.00,-SN,,0.00,WeatherDisplay:10.37,2013-12-13 05:22:00,
2013-12-13 00:27:00,18.5,11.3,30.06,WSW,249,14.3,20.7,73,0.00,-SN,,0.00,WeatherDisplay:10.37,2013-12-13 05:27:00,
2013-12-13 00:32:00,18.5,11.3,30.06,WSW,257,14.8,19.6,73,0.00,-SN,,0.00,WeatherDisplay:10.37,2013-12-13 05:32:00,
2013-12-13 00:37:00,18.5,11.3,30.06,WSW,242,14.2,20.7,73,0.00,-SN,,0.00,WeatherDisplay:10.37,2013-12-13 05:37:00,
2013-12-13 00:42:00,18.5,11.3,30.06,West,262,17.2,21.9,73,0.00,-SN,,0.00,WeatherDisplay:10.37,2013-12-13 05:42:00,
2013-12-13 00:47:00,18.4,11.5,30.06,SW,221,18.0,23.0,74,0.00,-SN,,0.00,WeatherDisplay:10.37,2013-12-13 05:47:00,
2013-12-13 00:52:00,18.5,11.3,30.06,SW,236,16.9,21.9,73,0.00,-SN,,0.00,WeatherDisplay:10.37,2013-12-13 05:52:00,
2013-12-13 00:57:00,18.4,11.5,30.06,WSW,253,14.7,19.6,74,0.00,-SN,,0.00,WeatherDisplay:10.37,2013-12-13 05:57:00,
2013-12-13 01:02:00,18.4,11.5,30.06,WSW,253,16.8,23.0,74,0.00,-SN,,0.00,WeatherDisplay:10.37,2013-12-13 06:02:00,
2013-12-13 01:07:00,18.4,11.5,30.06,WSW,254,13.7,18.4,74,0.00,-SN,,0.00,WeatherDisplay:10.37,2013-12-13 06:07:00,
2013-12-13 01:12:00,18.4,11.2,30.06,West,263,18.9,22.0,73,0.00,-SN,,0.00,WeatherDisplay:10.37,2013-12-13 06:12:00,
2013-12-13 01:17:00,18.5,11.6,30.06,WSW,240,15.3,19.6,74,0.00,-SN,,0.00,WeatherDisplay:10.37,2013-12-13 06:17:00,
2013-12-13 01:22:00,18.4,11.5,30.06,West,271,17.0,20.7,74,0.00,-SN,,0.00,WeatherDisplay:10.37,2013-12-13 06:22:00,
2013-12-13 01:27:00,18.5,11.6,30.06,West,259,19.0,26.5,74,0.00,-SN,,0.00,WeatherDisplay:10.37,2013-12-13 06:27:00,
2013-12-13 01:32:00,18.5,11.3,30.06,WSW,255,15.8,21.9,73,0.00,-SN,,0.00,WeatherDisplay:10.37,2013-12-13 06:32:00,
2013-12-13 01:37:00,18.5,11.3,30.06,WSW,240,18.7,24.2,73,0.00,-SN,,0.00,WeatherDisplay:10.37,2013-12-13 06:37:00,
2013-12-13 01:42:00,18.6,11.7,30.07,West,262,15.8,23.0,74,0.00,-SN,,0.00,WeatherDisplay:10.37,2013-12-13 06:42:00,
2013-12-13 01:47:00,18.6,11.7,30.06,WSW,256,15.6,21.9,74,0.00,-SN,,0.00,WeatherDisplay:10.37,2013-12-13 06:47:00,
2013-12-13 01:52:00,18.7,11.5,30.06,WSW,246,15.0,24.2,73,0.00,-SN,,0.00,WeatherDisplay:10.37,2013-12-13 06:52:00,
2013-12-13 01:57:00,18.7,11.8,30.06,WSW,257,15.1,19.6,74,0.00,-SN,,0.00,WeatherDisplay:10.37,2013-12-13 06:57:00,
2013-12-13 02:02:00,18.7,11.8,30.06,WSW,257,12.2,19.6,74,0.00,-SN,,0.00,WeatherDisplay:10.37,2013-12-13 07:02:00,
2013-12-13 02:07:00,18.6,11.7,30.06,SW,235,13.6,16.1,74,0.00,-SN,,0.00,WeatherDisplay:10.37,2013-12-13 07:07:00,
2013-12-13 02:12:00,18.6,11.7,30.06,SW,231,15.6,19.6,74,0.00,-SN,,0.00,WeatherDisplay:10.37,2013-12-13 07:12:00,
2013-12-13 02:17:00,18.6,12.0,30.06,WSW,248,13.8,18.4,75,0.00,-SN,,0.00,WeatherDisplay:10.37,2013-12-13 07:17:00,
2013-12-13 02:22:00,18.6,11.7,30.05,WSW,238,12.7,19.6,74,0.00,-SN,,0.00,WeatherDisplay:10.37,2013-12-13 07:22:00,
2013-12-13 02:27:00,18.7,11.8,30.06,SW,226,15.6,20.7,74,0.00,-SN,,0.00,WeatherDisplay:10.37,2013-12-13 07:27:00,
2013-12-13 02:32:00,18.7,12.1,30.05,WSW,255,15.9,24.2,75,0.00,-SN,,0.00,WeatherDisplay:10.37,2013-12-13 07:32:00,
2013-12-13 02:37:00,18.7,12.1,30.06,West,260,14.7,19.6,75,0.00,-SN,,0.00,WeatherDisplay:10.37,2013-12-13 07:37:00,
2013-12-13 02:42:00,18.7,12.1,30.06,SW,236,12.3,17.3,75,0.00,-SN,,0.00,WeatherDisplay:10.37,2013-12-13 07:42:00,
2013-12-13 02:47:00,18.7,12.1,30.06,WSW,239,12.5,17.3,75,0.00,-SN,,0.00,WeatherDisplay:10.37,2013-12-13 07:47:00,
2013-12-13 02:52:00,18.7,12.1,30.06,West,270,13.6,17.3,75,0.00,-SN,,0.00,WeatherDisplay:10.37,2013-12-13 07:52:00,
2013-12-13 02:57:00,18.8,12.5,30.06,West,277,15.0,16.1,76,0.00,-SN,,0.00,WeatherDisplay:10.37,2013-12-13 07:57:00,
2013-12-13 03:02:00,18.9,12.3,30.06,West,269,15.7,18.0,75,0.00,-SN,,0.00,WeatherDisplay:10.37,2013-12-13 08:02:00,
2013-12-13 03:07:00,19.0,12.4,30.06,West,269,11.9,19.6,75,0.00,-SN,,0.00,WeatherDisplay:10.37,2013-12-13 08:07:00,
2013-12-13 03:12:00,19.1,12.8,30.06,WSW,257,11.6,20.7,76,0.00,-SN,,0.00,WeatherDisplay:10.37,2013-12-13 08:12:00,
2013-12-13 03:17:00,19.1,12.5,30.06,WSW,250,15.1,19.6,75,0.00,OVC,,0.00,WeatherDisplay:10.37,2013-12-13 08:17:00,
2013-12-13 03:22:00,19.3,12.7,30.06,West,259,13.0,18.4,75,0.00,OVC,,0.00,WeatherDisplay:10.37,2013-12-13 08:22:00,
2013-12-13 03:27:00,19.4,12.8,30.06,WSW,246,14.2,21.9,75,0.00,OVC,,0.00,WeatherDisplay:10.37,2013-12-13 08:27:00,
2013-12-13 03:32:00,19.5,12.9,30.06,West,264,12.6,18.4,75,0.00,OVC,,0.00,WeatherDisplay:10.37,2013-12-13 08:32:00,
2013-12-13 03:37:00,19.6,13.0,30.05,WSW,246,17.7,22.0,75,0.00,OVC,,0.00,WeatherDisplay:10.37,2013-12-13 08:37:00,
2013-12-13 03:42:00,19.6,13.0,30.05,WSW,257,12.3,19.6,75,0.00,OVC,,0.00,WeatherDisplay:10.37,2013-12-13 08:42:00,
2013-12-13 03:47:00,19.6,13.0,30.05,NW,318,12.4,15.0,75,0.00,OVC,,0.00,WeatherDisplay:10.37,2013-12-13 08:47:00,
2013-12-13 03:52:00,19.6,13.3,30.05,WSW,256,15.5,17.0,76,0.00,OVC,,0.00,WeatherDisplay:10.37,2013-12-13 08:52:00,
2013-12-13 03:57:00,19.6,13.3,30.06,WSW,247,10.4,16.1,76,0.00,OVC,,0.00,WeatherDisplay:10.37,2013-12-13 08:57:00,
2013-12-13 04:02:00,19.6,13.3,30.05,SW,236,11.4,15.0,76,0.00,-SN,,0.00,WeatherDisplay:10.37,2013-12-13 09:02:00,
2013-12-13 04:07:00,19.6,13.3,30.06,WSW,255,12.4,16.0,76,0.00,-SN,,0.00,WeatherDisplay:10.37,2013-12-13 09:07:00,
2013-12-13 04:12:00,19.6,13.6,30.06,WSW,248,14.5,17.3,77,0.00,-SN,,0.00,WeatherDisplay:10.37,2013-12-13 09:12:00,
2013-12-13 04:17:00,19.7,13.7,30.05,WSW,251,13.2,19.6,77,0.00,-SN,,0.00,WeatherDisplay:10.37,2013-12-13 09:17:00,
2013-12-13 04:22:00,19.7,13.7,30.05,WSW,237,14.3,15.0,77,0.00,-SN,,0.00,WeatherDisplay:10.37,2013-12-13 09:22:00,
2013-12-13 04:27:00,19.8,14.0,30.05,WSW,257,13.3,16.0,78,0.00,-SN,,0.00,WeatherDisplay:10.37,2013-12-13 09:27:00,
2013-12-13 04:32:00,19.8,14.0,30.05,West,259,9.6,18.4,78,0.00,-SN,,0.00,WeatherDisplay:10.37,2013-12-13 09:32:00,
2013-12-13 04:37:00,20.0,14.2,30.05,SSW,205,11.6,17.0,78,0.00,-SN,,0.00,WeatherDisplay:10.37,2013-12-13 09:37:00,
2013-12-13 04:42:00,20.1,14.3,30.05,SW,228,14.3,20.7,78,0.00,-SN,,0.00,WeatherDisplay:10.37,2013-12-13 09:42:00,
2013-12-13 04:47:00,20.2,14.4,30.05,SW,224,13.1,17.3,78,0.00,-SN,,0.00,WeatherDisplay:10.37,2013-12-13 09:47:00,
2013-12-13 04:52:00,20.3,14.5,30.05,SW,233,15.6,19.6,78,0.00,-SN,,0.00,WeatherDisplay:10.37,2013-12-13 09:52:00,
2013-12-13 04:57:00,20.4,14.9,30.05,WSW,240,14.8,21.0,79,0.00,-SN,,0.00,WeatherDisplay:10.37,2013-12-13 09:57:00,
2013-12-13 05:02:00,20.5,15.0,30.05,West,262,14.7,20.0,79,0.00,-SN,,0.00,WeatherDisplay:10.37,2013-12-13 10:02:00,
2013-12-13 05:07:00,20.7,15.2,30.05,WSW,250,15.8,23.0,79,0.00,-SN,,0.00,WeatherDisplay:10.37,2013-12-13 10:07:00,
2013-12-13 05:12:00,20.8,15.3,30.05,SW,235,16.8,26.5,79,0.00,-SN,,0.00,WeatherDisplay:10.37,2013-12-13 10:12:00,
2013-12-13 05:17:00,20.9,15.4,30.06,WSW,247,13.6,20.0,79,0.00,-SN,,0.00,WeatherDisplay:10.37,2013-12-13 10:17:00,
2013-12-13 05:22:00,21.0,15.5,30.06,WNW,285,16.2,23.0,79,0.00,-SN,,0.00,WeatherDisplay:10.37,2013-12-13 10:22:00,
2013-12-13 05:27:00,21.1,15.6,30.06,West,270,12.8,18.4,79,0.00,-SN,,0.00,WeatherDisplay:10.37,2013-12-13 10:27:00,
2013-12-13 05:32:00,21.1,15.6,30.06,West,260,15.1,21.9,79,0.00,-SN,,0.00,WeatherDisplay:10.37,2013-12-13 10:32:00,
2013-12-13 05:37:00,21.3,15.5,30.06,WSW,243,18.3,25.3,78,0.00,-SN,,0.00,WeatherDisplay:10.37,2013-12-13 10:37:00,
2013-12-13 05:42:00,21.4,15.6,30.06,SW,228,12.2,16.1,78,0.00,-SN,,0.00,WeatherDisplay:10.37,2013-12-13 10:42:00,
2013-12-13 05:47:00,21.4,15.6,30.06,WSW,240,14.5,21.0,78,0.00,-SN,,0.00,WeatherDisplay:10.37,2013-12-13 10:47:00,
2013-12-13 05:53:00,21.6,16.1,30.07,West,262,12.0,19.6,79,0.00,-SN,,0.00,WeatherDisplay:10.37,2013-12-13 10:53:00,
2013-12-13 05:58:00,21.7,15.9,30.07,West,277,15.6,19.6,78,0.00,-SN,,0.00,WeatherDisplay:10.37,2013-12-13 10:58:00,
2013-12-13 06:03:00,21.8,16.0,30.07,West,262,12.8,18.4,78,0.00,-SN,,0.00,WeatherDisplay:10.37,2013-12-13 11:03:00,
2013-12-13 06:08:00,21.9,16.1,30.07,WSW,238,11.4,16.0,78,0.00,-SN,,0.00,WeatherDisplay:10.37,2013-12-13 11:08:00,
2013-12-13 06:13:00,22.0,16.2,30.07,West,267,15.4,25.3,78,0.00,-SN,,0.00,WeatherDisplay:10.37,2013-12-13 11:13:00,
2013-12-13 06:18:00,22.1,16.3,30.07,WSW,254,12.1,15.0,78,0.00,-SN,,0.00,WeatherDisplay:10.37,2013-12-13 11:18:00,
2013-12-13 06:23:00,22.1,16.3,30.07,West,273,16.6,24.2,78,0.00,-SN,,0.00,WeatherDisplay:10.37,2013-12-13 11:23:00,
2013-12-13 06:28:00,22.1,16.6,30.07,WSW,238,14.2,17.3,79,0.00,-SN,,0.00,WeatherDisplay:10.37,2013-12-13 11:28:00,
2013-12-13 06:33:00,22.1,16.6,30.07,WNW,288,11.8,20.7,79,0.00,-SN,,0.00,WeatherDisplay:10.37,2013-12-13 11:33:00,
2013-12-13 06:38:00,22.1,16.9,30.07,WSW,256,9.9,16.1,80,0.00,-SN,,0.00,WeatherDisplay:10.37,2013-12-13 11:38:00,
2013-12-13 06:43:00,22.2,17.0,30.07,WSW,252,15.3,21.9,80,0.00,-SN,,0.00,WeatherDisplay:10.37,2013-12-13 11:43:00,
2013-12-13 06:48:00,22.2,17.0,30.07,SW,231,14.6,19.6,80,0.00,-SN,,0.00,WeatherDisplay:10.37,2013-12-13 11:48:00,
2013-12-13 06:53:00,22.3,17.1,30.07,West,271,13.9,19.6,80,0.00,-SN,,0.00,WeatherDisplay:10.37,2013-12-13 11:53:00,
2013-12-13 06:58:00,22.3,17.1,30.07,West,262,12.9,16.1,80,0.00,-SN,,0.00,WeatherDisplay:10.37,2013-12-13 11:58:00,
2013-12-13 07:03:00,22.4,16.9,30.07,West,263,15.3,19.6,79,0.00,-SN,,0.00,WeatherDisplay:10.37,2013-12-13 12:03:00,
2013-12-13 07:08:00,22.5,17.0,30.07,West,259,16.7,24.2,79,0.00,-SN,,0.00,WeatherDisplay:10.37,2013-12-13 12:08:00,
2013-12-13 07:13:00,22.6,17.1,30.07,West,276,14.6,21.9,79,0.00,-SN,,0.00,WeatherDisplay:10.37,2013-12-13 12:13:00,
2013-12-13 07:18:00,22.7,17.2,30.08,SW,229,13.3,17.3,79,0.00,-SN,,0.00,WeatherDisplay:10.37,2013-12-13 12:18:00,
2013-12-13 07:23:00,22.7,17.2,30.08,West,259,11.5,16.1,79,0.00,-SN,,0.00,WeatherDisplay:10.37,2013-12-13 12:23:00,
2013-12-13 07:24:00,22.7,17.2,30.08,WSW,254,12.9,18.4,79,0.00,-SN,,0.00,WeatherDisplay:10.37,2013-12-13 12:24:00,
2013-12-13 07:29:00,22.7,17.2,30.08,West,278,15.3,19.6,79,0.00,-SN,,0.00,WeatherDisplay:10.37,2013-12-13 12:29:00,
2013-12-13 07:34:00,22.7,17.2,30.08,West,262,9.6,13.8,79,0.00,-SN,,0.00,WeatherDisplay:10.37,2013-12-13 12:34:00,
2013-12-13 07:39:00,22.7,17.5,30.08,WSW,240,12.6,17.3,80,0.00,-SN,,0.00,WeatherDisplay:10.37,2013-12-13 12:39:00,
2013-12-13 07:44:00,22.7,17.5,30.08,WSW,257,11.4,19.6,80,0.00,-SN,,0.00,WeatherDisplay:10.37,2013-12-13 12:44:00,
2013-12-13 07:49:00,22.7,17.5,30.08,WSW,256,11.0,16.1,80,0.00,-SN,,0.00,WeatherDisplay:10.37,2013-12-13 12:49:00,
2013-12-13 07:54:00,22.8,17.6,30.09,WSW,238,10.8,17.3,80,0.00,-SN,,0.00,WeatherDisplay:10.37,2013-12-13 12:54:00,
2013-12-13 07:59:00,22.8,17.6,30.09,WSW,247,11.5,15.0,80,0.00,-SN,,0.00,WeatherDisplay:10.37,2013-12-13 12:59:00,
2013-12-13 08:04:00,22.9,17.7,30.09,West,277,11.4,18.4,80,0.00,OVC,,0.00,WeatherDisplay:10.37,2013-12-13 13:04:00,
2013-12-13 08:09:00,22.9,17.7,30.09,West,273,12.2,17.0,80,0.00,OVC,,0.00,WeatherDisplay:10.37,2013-12-13 13:09:00,
2013-12-13 08:14:00,23.0,17.7,30.10,West,274,11.4,17.3,80,0.00,OVC,,0.00,WeatherDisplay:10.37,2013-12-13 13:14:00,
2013-12-13 08:19:00,23.0,18.0,30.10,WSW,243,13.4,16.0,81,0.00,OVC,,0.00,WeatherDisplay:10.37,2013-12-13 13:19:00,
2013-12-13 08:24:00,23.1,18.1,30.10,West,269,9.5,16.1,81,0.00,OVC,,0.00,WeatherDisplay:10.37,2013-12-13 13:24:00,
2013-12-13 08:29:00,23.0,18.3,30.10,West,281,13.0,16.1,82,0.00,OVC,,0.00,WeatherDisplay:10.37,2013-12-13 13:29:00,
2013-12-13 08:34:00,22.9,18.2,30.11,WSW,240,13.5,23.0,82,0.00,OVC,,0.00,WeatherDisplay:10.37,2013-12-13 13:34:00,
2013-12-13 08:39:00,22.9,18.5,30.11,WSW,239,12.8,16.1,83,0.00,OVC,,0.00,WeatherDisplay:10.37,2013-12-13 13:39:00,
2013-12-13 08:44:00,22.9,18.8,30.11,West,264,11.2,13.8,84,0.00,OVC,,0.00,WeatherDisplay:10.37,2013-12-13 13:44:00,
2013-12-13 08:49:00,22.9,18.8,30.12,West,277,10.6,18.4,84,0.00,OVC,,0.00,WeatherDisplay:10.37,2013-12-13 13:49:00,
2013-12-13 08:54:00,22.9,19.1,30.12,SSW,201,10.4,12.7,85,0.00,OVC,,0.00,WeatherDisplay:10.37,2013-12-13 13:54:00,
2013-12-13 08:59:00,22.8,19.0,30.12,WSW,257,14.5,17.3,85,0.00,OVC,,0.00,WeatherDisplay:10.37,2013-12-13 13:59:00,
2013-12-13 09:04:00,22.8,19.2,30.12,West,259,13.7,16.1,86,0.00,-SN,,0.00,WeatherDisplay:10.37,2013-12-13 14:04:00,
2013-12-13 09:09:00,22.7,19.1,30.12,SW,235,10.6,13.8,86,0.00,-SN,,0.00,WeatherDisplay:10.37,2013-12-13 14:09:00,
2013-12-13 09:14:00,22.7,19.1,30.12,WSW,258,9.9,12.7,86,0.00,-SN,,0.00,WeatherDisplay:10.37,2013-12-13 14:14:00,
2013-12-13 09:19:00,22.7,19.1,30.12,WSW,246,7.5,12.7,86,0.00,-SN,,0.00,WeatherDisplay:10.37,2013-12-13 14:19:00,
2013-12-13 09:24:00,22.7,19.1,30.12,WSW,243,8.5,11.5,86,0.00,-SN,,0.00,WeatherDisplay:10.37,2013-12-13 14:24:00,
2013-12-13 09:29:00,22.8,19.2,30.13,WSW,247,9.8,11.5,86,0.00,-SN,,0.00,WeatherDisplay:10.37,2013-12-13 14:29:00,
2013-12-13 09:34:00,22.9,19.1,30.13,WNW,284,8.7,13.8,85,0.00,-SN,,0.00,WeatherDisplay:10.37,2013-12-13 14:34:00,
2013-12-13 09:39:00,22.9,19.1,30.13,WSW,239,12.1,16.1,85,0.00,-SN,,0.00,WeatherDisplay:10.37,2013-12-13 14:39:00,
2013-12-13 09:44:00,23.0,19.4,30.13,WSW,253,11.4,13.8,86,0.00,-SN,,0.00,WeatherDisplay:10.37,2013-12-13 14:44:00,
2013-12-13 09:49:00,22.9,19.3,30.13,West,259,9.8,12.7,86,0.00,-SN,,0.00,WeatherDisplay:10.37,2013-12-13 14:49:00,
2013-12-13 09:54:00,23.0,19.4,30.13,West,274,10.1,12.7,86,0.00,-SN,,0.00,WeatherDisplay:10.37,2013-12-13 14:54:00,
2013-12-13 09:59:00,23.0,19.7,30.13,WSW,246,8.9,13.8,87,0.00,-SN,,0.00,WeatherDisplay:10.37,2013-12-13 14:59:00,
2013-12-13 10:04:00,23.0,19.7,30.14,West,274,8.5,10.4,87,0.00,-SN,,0.00,WeatherDisplay:10.37,2013-12-13 15:04:00,
2013-12-13 10:09:00,23.0,20.0,30.14,West,278,8.8,11.5,88,0.00,-SN,,0.00,WeatherDisplay:10.37,2013-12-13 15:09:00,
2013-12-13 10:14:00,22.9,19.9,30.14,West,264,8.8,13.8,88,0.00,-SN,,0.00,WeatherDisplay:10.37,2013-12-13 15:14:00,
2013-12-13 10:19:00,23.0,20.2,30.15,WSW,258,6.9,8.1,89,0.00,-SN,,0.00,WeatherDisplay:10.37,2013-12-13 15:19:00,
2013-12-13 10:24:00,23.0,20.2,30.15,WSW,248,6.3,8.1,89,0.00,-SN,,0.00,WeatherDisplay:10.37,2013-12-13 15:24:00,
2013-12-13 10:29:00,23.1,20.6,30.15,WSW,255,5.8,10.4,90,0.00,-SN,,0.00,WeatherDisplay:10.37,2013-12-13 15:29:00,
2013-12-13 10:34:00,23.2,20.7,30.15,West,262,5.7,8.1,90,0.00,-SN,,0.00,WeatherDisplay:10.37,2013-12-13 15:34:00,
2013-12-13 10:39:00,23.2,20.7,30.16,NW,321,5.2,9.2,90,0.00,-SN,,0.00,WeatherDisplay:10.37,2013-12-13 15:39:00,
2013-12-13 10:44:00,23.0,20.5,30.16,NNE,20,2.0,3.5,90,0.00,-SN,,0.00,WeatherDisplay:10.37,2013-12-13 15:44:00,
2013-12-13 10:49:00,21.7,18.7,30.16,East,94,2.9,3.5,88,0.00,-SN,,0.00,WeatherDisplay:10.37,2013-12-13 15:49:00,
2013-12-13 10:54:00,20.7,17.7,30.17,ENE,71,5.2,9.2,88,0.00,-SN,,0.00,WeatherDisplay:10.37,2013-12-13 15:54:00,
2013-12-13 10:59:00,20.2,17.5,30.17,NNE,13,2.0,8.1,89,0.00,-SN,,0.00,WeatherDisplay:10.37,2013-12-13 15:59:00,
2013-12-13 11:04:00,20.0,17.5,30.17,NW,316,3.4,5.8,90,0.00,-SN,,0.00,WeatherDisplay:10.37,2013-12-13 16:04:00,
2013-12-13 11:09:00,19.7,17.2,30.17,NNE,13,3.7,4.6,90,0.00,-SN,,0.00,WeatherDisplay:10.37,2013-12-13 16:09:00,
2013-12-13 11:14:00,19.7,17.2,30.17,NNE,18,0.9,3.5,90,0.00,-SN,,0.00,WeatherDisplay:10.37,2013-12-13 16:14:00,
2013-12-13 11:19:00,19.6,17.1,30.17,NE,41,1.9,3.5,90,0.00,-SN,,0.00,WeatherDisplay:10.37,2013-12-13 16:19:00,
2013-12-13 11:24:00,19.5,17.0,30.18,NNE,15,2.0,3.5,90,0.00,-SN,,0.00,WeatherDisplay:10.37,2013-12-13 16:24:00,
2013-12-13 11:29:00,19.3,16.8,30.17,NNW,335,2.5,5.8,90,0.00,-SN,,0.00,WeatherDisplay:10.37,2013-12-13 16:29:00,
2013-12-13 11:34:00,19.3,16.8,30.18,North,1,2.5,6.9,90,0.00,-SN,,0.00,WeatherDisplay:10.37,2013-12-13 16:34:00,
2013-12-13 11:39:00,19.3,16.8,30.18,NNW,328,5.5,8.1,90,0.00,-SN,,0.00,WeatherDisplay:10.37,2013-12-13 16:39:00,
2013-12-13 11:44:00,19.1,16.4,30.18,NW,315,5.6,9.2,89,0.00,-SN,,0.00,WeatherDisplay:10.37,2013-12-13 16:44:00,
2013-12-13 11:49:00,19.1,16.7,30.18,NNW,341,3.8,3.8,90,0.00,-SN,,0.00,WeatherDisplay:10.37,2013-12-13 16:49:00,
2013-12-13 11:54:00,19.4,16.9,30.18,NNW,342,2.7,8.0,90,0.00,-SN,,0.00,WeatherDisplay:10.37,2013-12-13 16:54:00,
2013-12-13 11:59:00,19.4,16.7,30.18,NNW,337,5.1,6.9,89,0.00,-SN,,0.00,WeatherDisplay:10.37,2013-12-13 16:59:00,
2013-12-13 12:04:00,19.1,16.4,30.18,NNW,333,3.3,6.9,89,0.00,-SN,,0.00,WeatherDisplay:10.37,2013-12-13 17:04:00,
2013-12-13 12:09:00,19.0,16.3,30.18,WSW,255,2.4,3.5,89,0.00,-SN,,0.00,WeatherDisplay:10.37,2013-12-13 17:09:00,
2013-12-13 12:14:00,19.0,16.3,30.18,NW,318,4.4,4.4,89,0.00,-SN,,0.00,WeatherDisplay:10.37,2013-12-13 17:14:00,
2013-12-13 12:19:00,18.8,16.1,30.18,NE,37,3.7,5.8,89,0.00,OVC,,0.00,WeatherDisplay:10.37,2013-12-13 17:19:00,
2013-12-13 12:24:00,18.8,16.1,30.19,NE,49,2.2,5.8,89,0.00,OVC,,0.00,WeatherDisplay:10.37,2013-12-13 17:24:00,
2013-12-13 12:29:00,18.6,15.9,30.19,East,87,2.6,5.8,89,0.00,OVC,,0.00,WeatherDisplay:10.37,2013-12-13 17:29:00,
2013-12-13 12:34:00,18.6,15.6,30.19,NNW,328,2.2,3.5,88,0.00,OVC,,0.00,WeatherDisplay:10.37,2013-12-13 17:34:00,
2013-12-13 12:39:00,18.7,15.7,30.19,NW,311,2.4,6.9,88,0.00,OVC,,0.00,WeatherDisplay:10.37,2013-12-13 17:39:00,
2013-12-13 12:44:00,18.6,15.4,30.19,NNE,23,5.2,8.1,87,0.00,OVC,,0.00,WeatherDisplay:10.37,2013-12-13 17:44:00,
2013-12-13 12:49:00,18.5,15.3,30.19,ENE,61,1.3,4.6,87,0.00,OVC,,0.00,WeatherDisplay:10.37,2013-12-13 17:49:00,
2013-12-13 12:54:00,18.5,15.3,30.19,NNW,343,2.0,6.0,87,0.00,OVC,,0.00,WeatherDisplay:10.37,2013-12-13 17:54:00,
2013-12-13 12:59:00,18.3,15.1,30.20,NNW,339,2.5,4.0,87,0.00,OVC,,0.00,WeatherDisplay:10.37,2013-12-13 17:59:00,
2013-12-13 13:04:00,18.2,15.0,30.20,North,2,2.0,6.0,87,0.00,-SN,,0.00,WeatherDisplay:10.37,2013-12-13 18:04:00,
2013-12-13 13:09:00,18.2,14.9,30.20,NNE,21,2.0,5.0,87,0.00,-SN,,0.00,WeatherDisplay:10.37,2013-12-13 18:09:00,
2013-12-13 13:14:00,18.0,14.8,30.20,North,355,2.6,6.9,87,0.00,-SN,,0.00,WeatherDisplay:10.37,2013-12-13 18:14:00,
2013-12-13 13:19:00,17.9,14.4,30.20,NNW,338,0.8,1.2,86,0.00,-SN,,0.00,WeatherDisplay:10.37,2013-12-13 18:19:00,
2013-12-13 13:24:00,17.7,14.0,30.20,NNW,340,2.0,3.5,85,0.00,-SN,,0.00,WeatherDisplay:10.37,2013-12-13 18:24:00,
2013-12-13 13:29:00,17.7,14.0,30.20,North,357,3.0,9.0,85,0.00,-SN,,0.00,WeatherDisplay:10.37,2013-12-13 18:29:00,
2013-12-13 13:34:00,17.6,13.9,30.21,NNE,15,1.9,4.6,85,0.00,-SN,,0.00,WeatherDisplay:10.37,2013-12-13 18:34:00,
2013-12-13 13:39:00,17.6,14.1,30.21,North,1,2.0,7.0,86,0.00,-SN,,0.00,WeatherDisplay:10.37,2013-12-13 18:39:00,
2013-12-13 13:44:00,17.4,13.9,30.21,North,6,2.1,3.5,86,0.00,-SN,,0.00,WeatherDisplay:10.37,2013-12-13 18:44:00,
2013-12-13 13:49:00,17.2,14.0,30.21,WNW,297,2.9,3.5,87,0.00,-SN,,0.00,WeatherDisplay:10.37,2013-12-13 18:49:00,
2013-12-13 13:54:00,17.1,13.9,30.21,ENE,61,1.2,2.3,87,0.00,-SN,,0.00,WeatherDisplay:10.37,2013-12-13 18:54:00,
2013-12-13 13:59:00,17.1,13.9,30.22,NNW,332,1.6,3.5,87,0.00,-SN,,0.00,WeatherDisplay:10.37,2013-12-13 18:59:00,
2013-12-13 14:04:00,17.0,13.8,30.22,NNE,22,1.0,2.3,87,0.00,-SN,,0.00,WeatherDisplay:10.37,2013-12-13 19:04:00,
2013-12-13 14:09:00,16.9,14.0,30.22,WNW,297,2.0,3.5,88,0.00,-SN,,0.00,WeatherDisplay:10.37,2013-12-13 19:09:00,
2013-12-13 14:14:00,16.9,14.0,30.22,North,10,1.0,3.0,88,0.00,-SN,,0.00,WeatherDisplay:10.37,2013-12-13 19:14:00,
2013-12-13 14:19:00,16.8,13.9,30.23,North,350,0.7,2.3,88,0.00,-SN,,0.00,WeatherDisplay:10.37,2013-12-13 19:19:00,
2013-12-13 14:24:00,16.8,13.9,30.23,NE,44,0.1,1.2,88,0.00,-SN,,0.00,WeatherDisplay:10.37,2013-12-13 19:24:00,
2013-12-13 14:29:00,17.0,14.1,30.22,North,350,2.1,3.5,88,0.00,-SN,,0.00,WeatherDisplay:10.37,2013-12-13 19:29:00,
2013-12-13 14:34:00,16.9,14.0,30.23,NE,39,1.6,3.5,88,0.00,-SN,,0.00,WeatherDisplay:10.37,2013-12-13 19:34:00,
2013-12-13 14:39:00,16.9,14.0,30.23,North,358,0.4,1.2,88,0.00,-SN,,0.00,WeatherDisplay:10.37,2013-12-13 19:39:00,
2013-12-13 14:44:00,16.9,14.0,30.23,NNW,347,1.2,3.5,88,0.00,-SN,,0.00,WeatherDisplay:10.37,2013-12-13 19:44:00,
2013-12-13 14:49:00,16.8,13.9,30.24,NW,321,0.5,2.3,88,0.00,-SN,,0.00,WeatherDisplay:10.37,2013-12-13 19:49:00,
2013-12-13 14:54:00,16.8,13.9,30.23,North,350,0.1,1.2,88,0.00,-SN,,0.00,WeatherDisplay:10.37,2013-12-13 19:54:00,
2013-12-13 14:59:00,16.9,14.0,30.23,NNW,344,0.1,1.2,88,0.00,-SN,,0.00,WeatherDisplay:10.37,2013-12-13 19:59:00,
2013-12-13 15:04:00,16.9,14.0,30.24,NNW,335,0.7,2.0,88,0.00,-SN,,0.00,WeatherDisplay:10.37,2013-12-13 20:04:00,
2013-12-13 15:09:00,16.9,13.7,30.24,East,81,0.5,2.3,87,0.00,-SN,,0.00,WeatherDisplay:10.37,2013-12-13 20:09:00,
2013-12-13 15:14:00,16.9,14.0,30.25,NE,49,0.1,1.2,88,0.00,-SN,,0.00,WeatherDisplay:10.37,2013-12-13 20:14:00,
2013-12-13 15:19:00,16.9,14.0,30.25,ENE,76,0.4,1.2,88,0.00,-SN,,0.00,WeatherDisplay:10.37,2013-12-13 20:19:00,
2013-12-13 15:24:00,16.9,14.0,30.25,NE,44,0.1,1.2,88,0.00,-SN,,0.00,WeatherDisplay:10.37,2013-12-13 20:24:00,
2013-12-13 15:30:00,17.0,14.1,30.25,ENE,58,0.3,1.2,88,0.00,-SN,,0.00,WeatherDisplay:10.37,2013-12-13 20:30:00,
2013-12-13 15:35:00,16.9,14.0,30.25,NW,323,0.4,2.3,88,0.00,-SN,,0.00,WeatherDisplay:10.37,2013-12-13 20:35:00,
2013-12-13 15:39:00,16.8,13.9,30.26,ENE,62,1.0,1.2,88,0.00,-SN,,0.00,WeatherDisplay:10.37,2013-12-13 20:39:00,
2013-12-13 15:45:00,16.7,13.8,30.26,ENE,68,1.3,2.3,88,0.00,-SN,,0.00,WeatherDisplay:10.37,2013-12-13 20:45:00,
2013-12-13 15:50:00,16.7,13.8,30.26,NE,54,0.0,0.0,88,0.00,-SN,,0.00,WeatherDisplay:10.37,2013-12-13 20:50:00,
2013-12-13 15:54:00,16.7,13.8,30.26,North,360,0.4,3.0,88,0.00,-SN,,0.00,WeatherDisplay:10.37,2013-12-13 20:54:00,
2013-12-13 15:59:00,16.6,13.7,30.27,North,358,0.5,2.3,88,0.00,-SN,,0.00,WeatherDisplay:10.37,2013-12-13 20:59:00,
2013-12-13 16:05:00,16.5,13.6,30.27,NNW,333,0.1,1.2,88,0.00,-SN,,0.00,WeatherDisplay:10.37,2013-12-13 21:05:00,
2013-12-13 16:09:00,16.4,13.5,30.27,NE,51,0.0,0.0,88,0.00,-SN,,0.00,WeatherDisplay:10.37,2013-12-13 21:09:00,
2013-12-13 16:14:00,16.4,13.5,30.27,NNE,26,0.0,0.0,88,0.00,-SN,,0.00,WeatherDisplay:10.37,2013-12-13 21:14:00,
2013-12-13 16:20:00,16.4,13.5,30.27,ENE,57,0.1,1.2,88,0.00,-SN,,0.00,WeatherDisplay:10.37,2013-12-13 21:20:00,
2013-12-13 16:25:00,16.3,13.6,30.28,ENE,57,0.0,0.0,89,0.00,-SN,,0.00,WeatherDisplay:10.37,2013-12-13 21:25:00,
2013-12-13 16:29:00,16.2,13.5,30.28,ENE,57,0.1,1.2,89,0.00,-SN,,0.00,WeatherDisplay:10.37,2013-12-13 21:29:00,
2013-12-13 16:34:00,16.2,13.5,30.29,ENE,57,0.0,0.0,89,0.00,-SN,,0.00,WeatherDisplay:10.37,2013-12-13 21:34:00,
2013-12-13 16:39:00,16.2,13.5,30.29,ENE,57,0.0,0.0,89,0.00,-SN,,0.00,WeatherDisplay:10.37,2013-12-13 21:39:00,
2013-12-13 16:44:00,16.2,13.5,30.29,ENE,57,0.0,0.0,89,0.00,-SN,,0.00,WeatherDisplay:10.37,2013-12-13 21:44:00,
2013-12-13 16:49:00,16.1,13.4,30.29,NNW,330,0.0,1.2,89,0.00,-SN,,0.00,WeatherDisplay:10.37,2013-12-13 21:49:00,
2013-12-13 16:54:00,16.0,13.3,30.29,NNE,25,0.0,0.0,89,0.00,-SN,,0.00,WeatherDisplay:10.37,2013-12-13 21:54:00,
2013-12-13 17:00:00,15.9,13.2,30.30,NNE,25,0.1,1.2,89,0.00,-SN,,0.00,WeatherDisplay:10.37,2013-12-13 22:00:00,
2013-12-13 17:05:00,15.8,13.1,30.30,NNW,346,0.0,0.0,89,0.00,-SN,,0.00,WeatherDisplay:10.37,2013-12-13 22:05:00,
2013-12-13 17:10:00,15.8,13.1,30.30,ENE,65,0.0,0.0,89,0.00,-SN,,0.00,WeatherDisplay:10.37,2013-12-13 22:10:00,
2013-12-13 17:15:00,15.7,13.0,30.30,ENE,65,0.1,1.2,89,0.00,-SN,,0.00,WeatherDisplay:10.37,2013-12-13 22:15:00,
2013-12-13 17:20:00,15.7,13.0,30.31,ENE,65,0.0,0.0,89,0.00,-SN,,0.00,WeatherDisplay:10.37,2013-12-13 22:20:00,
2013-12-13 17:25:00,15.6,12.9,30.32,ENE,65,0.0,0.0,89,0.00,-SN,,0.00,WeatherDisplay:10.37,2013-12-13 22:25:00,
2013-12-13 17:30:00,15.6,12.9,30.31,ENE,67,0.0,1.2,89,0.00,-SN,,0.00,WeatherDisplay:10.37,2013-12-13 22:30:00,
2013-12-13 17:35:00,15.5,12.8,30.32,ENE,67,0.0,0.0,89,0.00,-SN,,0.00,WeatherDisplay:10.37,2013-12-13 22:35:00,
2013-12-13 17:40:00,15.5,12.8,30.32,ENE,67,0.0,0.0,89,0.00,-SN,,0.00,WeatherDisplay:10.37,2013-12-13 22:40:00,
2013-12-13 17:45:00,15.4,12.7,30.32,ENE,68,0.0,0.0,89,0.00,-SN,,0.00,WeatherDisplay:10.37,2013-12-13 22:45:00,
2013-12-13 17:50:00,15.4,13.0,30.32,ENE,67,0.0,0.0,90,0.00,-SN,,0.00,WeatherDisplay:10.37,2013-12-13 22:50:00,
2013-12-13 17:55:00,15.4,13.0,30.32,ENE,67,0.0,0.0,90,0.00,-SN,,0.00,WeatherDisplay:10.37,2013-12-13 22:55:00,
2013-12-13 18:00:00,15.4,13.0,30.33,ENE,67,0.0,0.0,90,0.00,-SN,,0.00,WeatherDisplay:10.37,2013-12-13 23:00:00,
2013-12-13 18:05:00,15.3,12.9,30.33,ENE,67,0.0,0.0,90,0.00,-SN,,0.00,WeatherDisplay:10.37,2013-12-13 23:05:00,
2013-12-13 18:10:00,15.3,12.9,30.33,ENE,67,0.0,0.0,90,0.00,-SN,,0.00,WeatherDisplay:10.37,2013-12-13 23:10:00,
2013-12-13 18:15:00,15.2,12.8,30.33,ENE,67,0.0,0.0,90,0.00,-SN,,0.00,WeatherDisplay:10.37,2013-12-13 23:15:00,
2013-12-13 18:20:00,15.2,12.8,30.33,ENE,67,0.0,0.0,90,0.00,-SN,,0.00,WeatherDisplay:10.37,2013-12-13 23:20:00,
2013-12-13 18:25:00,15.1,12.7,30.33,ENE,67,0.0,0.0,90,0.00,-SN,,0.00,WeatherDisplay:10.37,2013-12-13 23:25:00,
2013-12-13 18:30:00,15.1,12.7,30.33,ENE,67,0.0,0.0,90,0.00,-SN,,0.00,WeatherDisplay:10.37,2013-12-13 23:30:00,
2013-12-13 18:35:00,15.0,12.6,30.34,ENE,66,0.0,0.0,90,0.00,-SN,,0.00,WeatherDisplay:10.37,2013-12-13 23:35:00,
2013-12-13 18:40:00,14.9,12.5,30.33,ENE,67,0.0,0.0,90,0.00,-SN,,0.00,WeatherDisplay:10.37,2013-12-13 23:40:00,
2013-12-13 18:45:00,14.9,12.5,30.33,ENE,67,0.0,0.0,90,0.00,-SN,,0.00,WeatherDisplay:10.37,2013-12-13 23:45:00,
2013-12-13 18:50:00,14.9,12.5,30.33,ENE,67,0.0,0.0,90,0.00,-SN,,0.00,WeatherDisplay:10.37,2013-12-13 23:50:00,
2013-12-13 18:55:00,14.9,12.5,30.33,ENE,66,0.0,0.0,90,0.00,-SN,,0.00,WeatherDisplay:10.37,2013-12-13 23:55:00,
2013-12-13 19:00:00,14.8,12.4,30.33,ENE,67,0.0,0.0,90,0.00,-SN,,0.00,WeatherDisplay:10.37,2013-12-14 00:00:00,
2013-12-13 19:05:00,14.8,12.4,30.34,ENE,67,0.0,0.0,90,0.00,-SN,,0.00,WeatherDisplay:10.37,2013-12-14 00:05:00,
2013-12-13 19:10:00,14.8,12.4,30.34,ENE,67,0.0,0.0,90,0.00,-SN,,0.00,WeatherDisplay:10.37,2013-12-14 00:10:00,
2013-12-13 19:15:00,14.8,12.4,30.34,ENE,67,0.0,0.0,90,0.00,-SN,,0.00,WeatherDisplay:10.37,2013-12-14 00:15:00,
2013-12-13 19:20:00,14.8,12.4,30.35,ENE,67,0.0,0.0,90,0.00,-SN,,0.00,WeatherDisplay:10.37,2013-12-14 00:20:00,
2013-12-13 19:25:00,14.8,12.4,30.35,ENE,67,0.0,0.0,90,0.00,-SN,,0.00,WeatherDisplay:10.37,2013-12-14 00:25:00,
2013-12-13 19:30:00,14.8,12.4,30.35,ENE,67,0.0,0.0,90,0.00,-SN,,0.00,WeatherDisplay:10.37,2013-12-14 00:30:00,
2013-12-13 19:35:00,14.8,12.4,30.35,ENE,68,0.0,0.0,90,0.00,-SN,,0.00,WeatherDisplay:10.37,2013-12-14 00:35:00,
2013-12-13 19:40:00,14.9,12.7,30.35,ENE,67,0.0,0.0,91,0.00,-SN,,0.00,WeatherDisplay:10.37,2013-12-14 00:40:00,
2013-12-13 19:45:00,14.9,12.7,30.35,ENE,67,0.0,0.0,91,0.00,-SN,,0.00,WeatherDisplay:10.37,2013-12-14 00:45:00,
2013-12-13 19:50:00,14.9,12.5,30.35,ENE,67,0.0,0.0,90,0.00,-SN,,0.00,WeatherDisplay:10.37,2013-12-14 00:50:00,
2013-12-13 19:55:00,14.9,12.7,30.35,ENE,67,0.0,0.0,91,0.00,-SN,,0.00,WeatherDisplay:10.37,2013-12-14 00:55:00,
2013-12-13 20:00:00,14.9,12.7,30.35,ENE,67,0.0,0.0,91,0.00,-SN,,0.00,WeatherDisplay:10.37,2013-12-14 01:00:00,
2013-12-13 20:05:00,14.9,12.5,30.36,ENE,67,0.0,0.0,90,0.00,-SN,,0.00,WeatherDisplay:10.37,2013-12-14 01:05:00,
2013-12-13 20:10:00,14.8,12.4,30.35,ENE,67,0.0,0.0,90,0.00,-SN,,0.00,WeatherDisplay:10.37,2013-12-14 01:10:00,
2013-12-13 20:13:00,14.8,12.4,30.35,ENE,67,0.0,0.0,90,0.00,-SN,,0.00,WeatherDisplay:10.37,2013-12-14 01:13:00,
2013-12-13 20:18:00,14.8,12.4,30.36,ENE,67,0.0,0.0,90,0.00,-SN,,0.00,WeatherDisplay:10.37,2013-12-14 01:18:00,
2013-12-13 20:23:00,14.8,12.4,30.36,ENE,67,0.0,0.0,90,0.00,-SN,,0.00,WeatherDisplay:10.37,2013-12-14 01:23:00,
2013-12-13 20:28:00,14.7,12.3,30.36,ENE,67,0.0,0.0,90,0.00,-SN,,0.00,WeatherDisplay:10.37,2013-12-14 01:28:00,
2013-12-13 20:33:00,14.7,12.3,30.36,ENE,67,0.0,0.0,90,0.00,-SN,,0.00,WeatherDisplay:10.37,2013-12-14 01:33:00,
2013-12-13 20:38:00,14.7,12.3,30.36,ENE,67,0.0,0.0,90,0.00,-SN,,0.00,WeatherDisplay:10.37,2013-12-14 01:38:00,
2013-12-13 20:43:00,14.7,12.3,30.37,ENE,67,0.1,1.2,90,0.00,-SN,,0.00,WeatherDisplay:10.37,2013-12-14 01:43:00,
2013-12-13 20:48:00,14.7,12.3,30.37,ENE,66,0.1,1.2,90,0.00,-SN,,0.00,WeatherDisplay:10.37,2013-12-14 01:48:00,
2013-12-13 20:53:00,14.8,12.4,30.37,NE,48,0.5,2.3,90,0.00,-SN,,0.00,WeatherDisplay:10.37,2013-12-14 01:53:00,
2013-12-13 20:58:00,14.8,12.1,30.37,ENE,57,1.0,2.3,89,0.00,-SN,,0.00,WeatherDisplay:10.37,2013-12-14 01:58:00,
2013-12-13 21:03:00,14.8,11.9,30.37,NE,47,1.2,3.0,88,0.00,-SN,,0.00,WeatherDisplay:10.37,2013-12-14 02:03:00,
2013-12-13 21:08:00,14.8,11.4,30.37,NE,55,0.5,1.2,86,0.00,-SN,,0.00,WeatherDisplay:10.37,2013-12-14 02:08:00,
2013-12-13 21:13:00,14.7,11.3,30.37,NE,54,0.0,1.2,86,0.00,-SN,,0.00,WeatherDisplay:10.37,2013-12-14 02:13:00,
2013-12-13 21:18:00,14.7,11.0,30.38,NE,50,0.0,0.0,85,0.00,-SN,,0.00,WeatherDisplay:10.37,2013-12-14 02:18:00,
2013-12-13 21:23:00,14.6,10.9,30.38,NE,53,1.2,2.3,85,0.00,-SN,,0.00,WeatherDisplay:10.37,2013-12-14 02:23:00,
2013-12-13 21:29:00,14.6,10.6,30.38,NE,54,1.2,2.3,84,0.00,-SN,,0.00,WeatherDisplay:10.37,2013-12-14 02:29:00,
2013-12-13 21:33:00,14.5,10.3,30.39,NE,53,1.2,2.3,83,0.00,-SN,,0.00,WeatherDisplay:10.37,2013-12-14 02:33:00,
2013-12-13 21:38:00,14.5,10.3,30.39,North,352,0.9,3.5,83,0.00,-SN,,0.00,WeatherDisplay:10.37,2013-12-14 02:38:00,
2013-12-13 21:43:00,14.3,10.1,30.39,WSW,245,0.3,1.2,83,0.00,-SN,,0.00,WeatherDisplay:10.37,2013-12-14 02:43:00,
2013-12-13 21:48:00,14.1,9.6,30.39,ENE,60,1.0,3.5,82,0.00,-SN,,0.00,WeatherDisplay:10.37,2013-12-14 02:48:00,
2013-12-13 21:53:00,14.0,9.2,30.39,NE,55,0.2,1.2,81,0.00,-SN,,0.00,WeatherDisplay:10.37,2013-12-14 02:53:00,
2013-12-13 21:59:00,13.9,9.1,30.39,NE,55,0.0,1.2,81,0.00,-SN,,0.00,WeatherDisplay:10.37,2013-12-14 02:59:00,
2013-12-13 22:04:00,13.8,9.0,30.39,NE,54,0.9,1.2,81,0.00,-SN,,0.00,WeatherDisplay:10.37,2013-12-14 03:04:00,
2013-12-13 22:09:00,13.7,9.0,30.39,ENE,58,0.4,2.0,81,0.00,-SN,,0.00,WeatherDisplay:10.37,2013-12-14 03:09:00,
2013-12-13 22:14:00,13.6,8.6,30.39,NE,51,1.8,2.3,80,0.00,-SN,,0.00,WeatherDisplay:10.37,2013-12-14 03:14:00,
2013-12-13 22:19:00,13.5,8.5,30.39,NE,51,0.5,1.2,80,0.00,-SN,,0.00,WeatherDisplay:10.37,2013-12-14 03:19:00,
2013-12-13 22:24:00,13.3,8.3,30.40,NE,51,0.0,0.0,80,0.00,-SN,,0.00,WeatherDisplay:10.37,2013-12-14 03:24:00,
2013-12-13 22:29:00,13.2,8.2,30.40,ENE,65,0.8,1.2,80,0.00,-SN,,0.00,WeatherDisplay:10.37,2013-12-14 03:29:00,
2013-12-13 22:34:00,13.0,8.0,30.40,ENE,65,0.7,1.2,80,0.00,-SN,,0.00,WeatherDisplay:10.37,2013-12-14 03:34:00,
2013-12-13 22:39:00,13.0,7.7,30.40,ENE,63,0.8,1.2,79,0.00,-SN,,0.00,WeatherDisplay:10.37,2013-12-14 03:39:00,
2013-12-13 22:44:00,12.9,7.6,30.40,ENE,63,0.0,0.0,79,0.00,-SN,,0.00,WeatherDisplay:10.37,2013-12-14 03:44:00,
2013-12-13 22:49:00,12.7,7.7,30.40,ENE,63,0.0,0.0,80,0.00,-SN,,0.00,WeatherDisplay:10.37,2013-12-14 03:49:00,
2013-12-13 22:54:00,12.5,7.8,30.40,ENE,63,0.0,0.0,81,0.00,-SN,,0.00,WeatherDisplay:10.37,2013-12-14 03:54:00,
2013-12-13 22:59:00,12.4,7.7,30.41,ENE,62,0.0,0.0,81,0.00,-SN,,0.00,WeatherDisplay:10.37,2013-12-14 03:59:00,
2013-12-13 23:04:00,12.2,7.8,30.41,ENE,63,0.0,0.0,82,0.00,-SN,,0.00,WeatherDisplay:10.37,2013-12-14 04:04:00,
2013-12-13 23:09:00,11.9,7.5,30.41,ENE,62,0.0,0.0,82,0.00,-SN,,0.00,WeatherDisplay:10.37,2013-12-14 04:09:00,
2013-12-13 23:14:00,11.7,7.3,30.41,ENE,63,0.0,0.0,82,0.00,-SN,,0.00,WeatherDisplay:10.37,2013-12-14 04:14:00,
2013-12-13 23:19:00,11.6,7.2,30.41,ENE,63,0.0,0.0,82,0.00,-SN,,0.00,WeatherDisplay:10.37,2013-12-14 04:19:00,
2013-12-13 23:24:00,11.5,7.1,30.41,ENE,62,0.0,0.0,82,0.00,-SN,,0.00,WeatherDisplay:10.37,2013-12-14 04:24:00,
2013-12-13 23:29:00,11.4,7.0,30.41,ENE,63,0.0,0.0,82,0.00,-SN,,0.00,WeatherDisplay:10.37,2013-12-14 04:29:00,
2013-12-13 23:34:00,11.3,6.9,30.41,ENE,63,0.0,0.0,82,0.00,-SN,,0.00,WeatherDisplay:10.37,2013-12-14 04:34:00,
2013-12-13 23:39:00,11.0,6.6,30.41,ENE,63,0.0,0.0,82,0.00,-SN,,0.00,WeatherDisplay:10.37,2013-12-14 04:39:00,
2013-12-13 23:44:00,10.9,6.8,30.41,ENE,62,0.0,0.0,83,0.00,-SN,,0.00,WeatherDisplay:10.37,2013-12-14 04:44:00,
2013-12-13 23:49:00,10.7,6.6,30.42,ENE,62,0.0,0.0,83,0.00,-SN,,0.00,WeatherDisplay:10.37,2013-12-14 04:49:00,
2013-12-13 23:54:00,10.6,6.5,30.42,ENE,63,0.0,0.0,83,0.00,-SN,,0.00,WeatherDisplay:10.37,2013-12-14 04:54:00,
2013-12-13 23:59:00,10.7,6.6,30.42,ENE,63,0.0,0.0,83,0.00,-SN,,0.00,WeatherDisplay:10.37,2013-12-14 04:59:00,